Regional Weather Roundup
Issued by NWS

Home | Current Version | Previous Version | Graphics & Text | Print | Product List | Glossary On
Versions: 1 2 3 4 5 6 7 8 9 10 11 12 13 14 15 16 17 18 19 20 21 22 23 24 25 26 27 28 29 30 31 32 33 34 35 36 37 38 39 40 41 42 43 44 45 46 47 48 49 50
000
ASUS45 KSLC 300710
RWRUT

UTAH REGIONAL WEATHER ROUNDUP
NATIONAL WEATHER SERVICE SALT LAKE CITY UT
100 AM MDT SUN AUG 30 2015

UTZ001>011-023>025-300800-

NORTHERN UTAH

CITY           SKY/WX    TMP DP  RH WIND       PRES   REMARKS
BRIGHAM CITY   MOCLDY    87  33  14 S21G30    29.85S
HILL AFB       MOCLDY    80  44  27 S15       29.92S
LOGAN          CLEAR     75  46  35 MISG      29.87R
OGDEN          MOCLDY    82  43  25 S16       29.88S
PROVO AIRPORT  CLOUDY    77  48  36 SW5       29.98R
SALT LAKE CITY MOCLDY    82  44  26 S13       29.89R
VERNAL         CLEAR     63  40  42 W5        30.07S
WENDOVER       CLOUDY    82  36  18 W13       29.88R
HEBER CITY     MOCLDY    68  41  37 NE5       30.05S
WEST JORDAN    CLEAR     79  46  31 SE12      29.95R

$$

UTZ012>022-026-027-300800-

SOUTHERN/CENTRAL UTAH

CITY           SKY/WX    TMP DP  RH WIND       PRES   REMARKS
BLANDING       CLEAR     64  33  30 N6        30.23F
BRYCE CANYON   CLEAR     53  46  77 CALM      30.31S
CEDAR CITY     CLEAR     69  44  40 S8        30.11R
DELTA          CLEAR     76  41  28 S10       30.00R
HANKSVILLE     CLEAR     70  39  32 CALM      30.04R
MILFORD        CLEAR     69  43  38 SW10      30.04R
MOAB/CYNLANDS  CLEAR     72  30  21 CALM      30.02R
PRICE          CLOUDY    71  34  25 NE7       30.12S
ST GEORGE      PTSUNNY   84  52  32 E12       29.92S
KANAB          CLEAR     66  55  68 CALM      30.16R

$$

REGIONAL REPORTS     COLORADO/ARIZONA

CITY           SKY/WX    TMP DP  RH WIND       PRES   REMARKS
CRAIG, CO      PTCLDY    51  44  77 CALM      30.18S
GRAND JUNCTION PTCLDY    72  41  32 E14       30.07R
RIFLE          PTCLDY    63  44  50 CALM      30.15S
MONTROSE       PTCLDY    64  43  46 SE8       30.19S
CORTEZ         MOCLDY    57  45  64 VRB3      30.20S
PAGE, AZ       PTCLDY    83  46  27 SW3       30.03R
GRAND CANYON   PTCLDY    52  44  74 CALM      30.27S
KINGMAN        CLEAR     87  48  25 S14       29.97S
FLAGSTAFF      PTCLDY    56  49  77 CALM      30.31F

$$

REGIONAL REPORTS    NEVADA/IDAHO/WYOMING

CITY           SKY/WX    TMP DP  RH WIND       PRES   REMARKS
LAS VEGAS, NV  CLEAR     94  36  13 SW10      29.80R
ELY            PTCLDY    67  36  31 S10       30.10R
ELKO           PTCLDY    64  41  42 MISG      30.03R
POCATELLO, ID  CLEAR     62  58  86 SW7       29.89S
BURLEY         MOCLDY    60  53  77 S7        29.90R
EVANSTON, WY   MOCLDY    65  36  34 S9        30.15R
ROCK SPRINGS   PTCLDY    68  32  26 SW6       30.14R
KEMMERER       MOCLDY    63  32  31 CALM      30.17S

$$



USA.gov is the U.S. government's official web portal to all federal, state and local government web resources and services.